• Processing (Info)

  • MPEC 2012-K24 : 2012 KC6

    The following Minor Planet Electronic Circular may be linked-to from your own Web pages, but must not otherwise be redistributed electronically.

    A form allowing access to any MPEC is at the bottom of this page.


    Read MPEC 2012-K23 Read MPEC 2012-K25


    M.P.E.C. 2012-K24                                Issued 2012 May 20, 00:13 UT
    
         The Minor Planet Electronic Circulars contain information on unusual
             minor planets and routine data on comets.  They are published
       on behalf of Commission 20 of the International Astronomical Union by the
              Minor Planet Center, Smithsonian Astrophysical Observatory,
                              Cambridge, MA 02138, U.S.A.
    
                 Prepared using the Tamkin Foundation Computer Network
    
                                  MPC@CFA.HARVARD.EDU
                URL https://www.minorplanetcenter.net/    ISSN 1523-6714
    
                                       2012 KC6
    
    Observations:
         K12K06C* C2012 05 18.38282 16 47 19.78 +56 06 04.3          19.8 VrEK024703
         K12K06C  C2012 05 18.38962 16 47 19.42 +56 05 40.3          19.9 VrEK024703
         K12K06C  C2012 05 18.39641 16 47 19.10 +56 05 17.4          19.2 VrEK024703
         K12K06C  C2012 05 18.40329 16 47 18.74 +56 04 50.4          19.7 VrEK024703
         K12K06C  C2012 05 18.43248 16 47 17.13 +56 03 02.8          19.6 RoEK024H01
         K12K06C  C2012 05 18.43905 16 47 16.86 +56 02 38.8          19.5 RoEK024H01
         K12K06C  C2012 05 18.44046 16 47 16.99 +56 02 36.9          19.8 VrEK024703
         K12K06C  C2012 05 18.44182 16 47 16.94 +56 02 31.4          20.2 VrEK024703
         K12K06C  C2012 05 18.44250 16 47 16.84 +56 02 29.1          20.4 VrEK024703
         K12K06C  C2012 05 18.44764 16 47 16.50 +56 02 07.4          19.6 RoEK024H01
         K12K06C  C2012 05 18.45354 16 47 16.26 +56 01 45.6          19.7 RoEK024H01
         K12K06C  C2012 05 18.46897 16 47 20.367+56 01 13.82         20.6 gLEK024F51
         K12K06C  C2012 05 18.48008 16 47 19.748+56 00 34.72         20.5 gLEK024F51
         K12K06C  C2012 05 18.49140 16 47 19.159+55 59 55.29         20.2 rLEK024F51
         K12K06C  C2012 05 18.50179 16 47 18.595+55 59 18.64         20.1 rLEK024F51
         K12K06C  C2012 05 18.94213 16 47 14.04 +55 33 29.8          18.8 RuEK024B18
         K12K06C  C2012 05 18.94493 16 47 13.98 +55 33 20.3          19.2 RuEK024B18
         K12K06C  C2012 05 18.94914 16 47 13.78 +55 33 05.7          19.5 RuEK024B18
         K12K06C KC2012 05 18.99050 16 47 14.93 +55 30 40.9          19.5 RtEK024204
         K12K06C KC2012 05 19.00125 16 47 14.48 +55 30 04.6                tEK024204
         K12K06C KC2012 05 19.01328 16 47 13.98 +55 29 23.2                tEK024204
         K12K06C  C2012 05 19.25793 16 47 13.86 +55 15 34.6          19.3 RoEK024H01
         K12K06C  C2012 05 19.26618 16 47 13.49 +55 15 07.5          19.3 RoEK024H01
         K12K06C  C2012 05 19.27669 16 47 13.01 +55 14 33.0          19.4 RoEK024H01
         K12K06C  C2012 05 19.28356 16 47 12.70 +55 14 10.3          19.2 RoEK024H01
         K12K06C KC2012 05 19.33452916 47 08.46 +55 11 12.1          20.2 VtEK024H21
         K12K06C KC2012 05 19.33916916 47 08.25 +55 10 56.1          20.4 VtEK024H21
         K12K06C KC2012 05 19.34376316 47 08.04 +55 10 40.3          20.5 VtEK024H21
         K12K06C KC2012 05 19.34848516 47 07.89 +55 10 23.5          20.2 VtEK024H21
         K12K06C  C2012 05 19.95674 16 47 01.68 +54 36 21.2          20.0 RuEK024B18
         K12K06C  C2012 05 19.96023 16 47 01.55 +54 36 09.7          20.2 RuEK024B18
         K12K06C  C2012 05 19.96303 16 47 01.43 +54 36 00.3          20.4 RuEK024B18
    
    Observer details:
    204 Schiaparelli Observatory.  Observer L. Buzzi.  0.60-m f/4.64 reflector
        + CCD.
    703 Catalina Sky Survey.  Observer A. Boattini.  Measurers A. Boattini,
        E. J. Christensen, A. R. Gibbs, A. D. Grauer, R. E. Hill, R. A. Kowalski,
        S. M. Larson, R. H. McNaught.  0.68-m Schmidt + CCD.
    B18 Terskol.  Observers M. Andreev, A. Sergeev, N. Parakhin, V. Kozlov,
        N. Karpov.  Measurer M. Andreev.  0.6-m f/12.8 Cassegrain + CCD.
    F51 Pan-STARRS 1, Haleakala.  Observers N. Primak, A. Schultz, S. Watters,
        J. Thiel, T. Goggia.  Measurer PS1 Science Consortium.  1.8-m
        Ritchey-Chretien + CCD.
    H01 Magdalena Ridge Observatory, Socorro.  Observers W. H. Ryan, E. V. Ryan.
        Measurer W. H. Ryan.  2.4-m f/8.9 reflector + CCD.
    H21 Astronomical Research Observatory, Westfield.  Observer R. Holmes.
        Measurers T. Vorobjov, L. Buzzi, S. Foglia.  0.61-m f/4.0 astrograph + CCD.
    
    Orbital elements:
    2012 KC6                                            PHA, Earth MOID = 0.0494 AU
    Epoch 2012 Mar. 14.0 TT = JDT 2456000.5                 MPC
    M 354.32924              (2000.0)            P               Q
    n   0.71230426     Peri.  337.98585     -0.99143277     -0.11965585
    a   1.2417258      Node   195.42057     +0.12822552     -0.96799084
    e   0.2471266      Incl.   11.36073     -0.02488543     -0.22062687
    P   1.38           H   21.7           G   0.15           U   8
    Residuals in seconds of arc
    120518 703  0.3+  0.1-    120518 F51  0.0   0.1-    120519 H01  0.1+  0.2+
    120518 703  0.1+  0.2+    120518 F51  0.1-  0.4-    120519 H01  0.0   0.3+
    120518 703  0.2+  1.6+    120518 F51  0.1+  0.0     120519 H01  0.1+  0.3+
    120518 703  0.1-  0.6-    120518 F51  0.0   0.0     120519 H21  0.1-  0.0
    120518 H01  0.1+  0.1+    120518 B18  0.1-  0.4-    120519 H21  0.2-  0.1+
    120518 H01  0.2+  0.1+    120518 B18  0.4+  0.2-    120519 H21  0.3-  0.2+
    120518 703  0.4-  0.5+    120518 B18  0.3+  0.2-    120519 H21  0.2+  0.1-
    120518 703  0.3-  0.0     120518 204  0.0   0.1-    120519 B18  0.2-  0.3-
    120518 703  0.9-  0.2+    120519 204  0.0   0.2+    120519 B18  0.0   0.0
    120518 H01  0.1+  0.2+    120519 204  0.2+  0.1-    120519 B18  0.0   0.0
    120518 H01  0.1+  0.1+    120519 H01  0.1+  0.2+
    
    Ephemeris:
    2012 KC6                 a,e,i = 1.24, 0.25, 11                  q = 0.9349
    Date    TT    R. A. (2000) Decl.     Delta      r     Elong.  Phase     V
    2012 04 20    04 42 53.1 +58 59 46   0.06967 0.9687    57.2   119.4    20.6
    ...
    2012 05 05    16 48 27.1 +74 26 23   0.09735 1.0087    87.3    87.1    19.7
    ...
    2012 05 13    16 48 10.1 +61 58 50   0.1242  1.0346    97.8    75.4    19.9
    ...
    2012 05 19    16 47 14.0 +55 30 01   0.1458  1.0554   103.5    68.7    20.1
    2012 05 20    16 47 02.3 +54 33 50   0.1494  1.0590   104.4    67.8    20.1
    2012 05 21    16 46 50.2 +53 39 30   0.1531  1.0626   105.2    66.8    20.1
    ...
    2012 05 27    16 45 35.6 +48 44 08   0.1752  1.0848   109.7    61.6    20.3
    ...
    2012 06 04    16 44 13.2 +43 01 55   0.2052  1.1154   114.5    55.8    20.5
    ...
    2012 06 19    16 43 44.6 +33 24 47   0.2644  1.1742   120.9    47.9    21.0
    
    A. U. Tomatic                (C) Copyright 2012 MPC           M.P.E.C. 2012-K24
    

    Read MPEC 2012-K23 Read MPEC 2012-K25


    MPEC number:

    Enter an MPEC number in one of the following forms:

    • 1997-B01 (the full form)
    • J97B01 (the packed version of the full form)
    • B01 (the abbreviated form)